Temperature
3 3 3 3 3 3 3 5 5 6 6 7 7 6 5 4 3 2 2 2 2 2 1 2 2 2 2 2 2 2 2 2 2 2 1 1 1 1 1 1 1 1 1 1
2 2 2 2 3 3 3 4 4 4 5 6 5 4 4 3 2 2 2 2 2 2 1 2 1 1 1 1 1 1 1 1 1 1 1 1 1 1 0 0 0 0 0 -0
3 2 2 3 4 3 3 3 4 4 5 5 4 4 3 2 2 1 1 1 1 1 1 1 1 1 1 1 1 1 1 1 1 0 0 0 0 0 -0 -0 -0 -0 -0 -1
2 2 2 5 3 3 3 3 3 4 4 3 3 2 1 1 1 1 1 1 1 1 0 1 1 1 1 1 0 0 0 0 -0 -0 -0 -0 -0 -1 -1 -1 -1 -1 -1 -1
2 2 4 4 3 2 2 3 3 2 2 2 1 1 1 1 0 0 0 0 0 0 0 0 0 0 0 0 -0 -0 -0 -0 -0 -1 -1 -1 -1 -1 -1 -1 -1 -1 -1 -1
1 2 3 5 2 1 2 3 3 2 2 1 1 3 3 1 0 -0 -0 -0 -0 -0 -0 -0 0 -0 -0 -0 -0 -0 -1 -1 -1 -1 -1 -1 -1 -2 -2 -2 -2 -2 -2 -2
1 2 3 3 1 1 3 4 2 1 1 0 1 2 1 -0 -0 -0 -1 -1 -1 -1 -1 -1 -1 -0 -0 -1 -1 -1 -1 -1 -1 -2 -2 -2 -2 -2 -2 -2 -2 -2 -2 -3
1 1 3 1 1 2 3 2 1 1 0 0 -0 -1 -1 -1 -1 -1 -1 -1 -1 -1 -1 -1 -1 -1 -1 -1 -1 -1 -1 -2 -2 -2 -2 -2 -2 -2 -2 -2 -3 -3 -3 -3
1 2 1 -0 0 1 0 0 0 0 0 -0 -1 -1 -1 -1 -1 -1 -1 -1 -1 -2 -2 -2 -2 -1 -1 -1 -2 -2 -2 -2 -2 -2 -2 -3 -3 -3 -3 -3 -3 -3 -3 -3
-1 0 -0 -1 -1 -0 0 -0 0 -0 -0 -1 -1 -2 -2 -2 -2 -2 -2 -2 -2 -2 -2 -2 -2 -2 -2 -2 -2 -2 -2 -2 -2 -3 -3 -3 -3 -3 -3 -3 -3 -4 -4 -4
-1 -0 -1 -1 -0 -0 -0 -0 -1 -0 -1 -1 -1 -2 -2 -2 -2 -2 -2 -2 -2 -2 -2 -2 -2 -2 -2 -2 -2 -3 -3 -3 -3 -3 -3 -3 -3 -3 -4 -4 -4 -4 -4 -4
1 1 0 0 0 -0 -0 -1 -1 -1 -1 -2 -2 -2 -2 -2 -3 -2 -3 -3 -3 -3 -3 -3 -3 -3 -3 -3 -3 -3 -3 -3 -3 -3 -4 -4 -4 -4 -4 -4 -4 -4 -4 -4
-1 -0 -1 -1 -1 -1 -1 -1 -1 -2 -2 -2 -2 -2 -2 -3 -3 -3 -3 -3 -3 -3 -3 -3 -3 -3 -3 -3 -3 -3 -3 -4 -4 -4 -4 -4 -4 -4 -5 -4 -4 -5 -5 -5
-2 -2 -2 -1 -2 -2 -2 -2 -2 -2 -2 -2 -2 -3 -3 -3 -3 -3 -3 -3 -3 -3 -3 -3 -3 -3 -3 -3 -4 -4 -4 -4 -4 -4 -4 -5 -5 -5 -5 -5 -5 -5 -5 -5
-2 -2 -2 -2 -2 -2 -2 -2 -3 -3 -3 -3 -3 -3 -3 -3 -3 -3 -3 -3 -3 -3 -3 -4 -4 -3 -4 -4 -4 -4 -4 -4 -4 -5 -5 -5 -5 -5 -5 -6 -6 -6 -6 -6
-3 -3 -3 -3 -3 -3 -3 -3 -3 -3 -3 -3 -4 -4 -4 -4 -4 -4 -4 -4 -4 -4 -4 -4 -4 -4 -4 -4 -4 -4 -4 -5 -5 -5 -5 -5 -6 -6 -6 -6 -6 -6 -6 -6
-4 -3 -3 -3 -3 -3 -3 -4 -4 -4 -4 -4 -4 -4 -4 -4 -4 -4 -4 -4 -4 -4 -4 -4 -4 -4 -4 -4 -5 -5 -5 -5 -5 -5 -5 -6 -6 -6 -6 -6 -7 -7 -7 -7
-3 -3 -3 -3 -3 -4 -4 -4 -4 -4 -4 -4 -4 -4 -4 -4 -4 -4 -4 -4 -4 -4 -4 -4 -5 -5 -5 -5 -5 -5 -5 -5 -5 -6 -6 -6 -6 -7 -7 -7 -7 -7 -7 -7
-4 -4 -4 -4 -4 -4 -4 -4 -4 -4 -4 -4 -5 -5 -5 -5 -5 -5 -5 -5 -5 -5 -5 -5 -5 -5 -5 -5 -6 -6 -6 -6 -6 -6 -6 -6 -7 -7 -7 -7 -7 -7 -7 -7
-4 -4 -4 -4 -4 -4 -4 -5 -5 -5 -5 -5 -5 -5 -5 -5 -5 -5 -5 -5 -5 -5 -5 -5 -5 -6 -6 -6 -6 -6 -6 -6 -6 -6 -7 -7 -7 -7 -7 -7 -7 -7 -7 -7
-4 -4 -4 -5 -5 -5 -5 -5 -5 -5 -5 -5 -5 -5 -5 -5 -5 -5 -6 -5 -5 -5 -6 -6 -6 -6 -6 -6 -6 -6 -6 -6 -7 -7 -7 -7 -7 -7 -7 -7 -7 -7 -7 -8
-5 -5 -5 -5 -5 -5 -5 -5 -5 -5 -5 -5 -5 -6 -6 -6 -6 -6 -6 -6 -6 -6 -6 -6 -6 -6 -6 -7 -7 -7 -7 -7 -7 -7 -7 -7 -7 -7 -7 -7 -7 -7 -8 -8
-5 -5 -5 -5 -5 -5 -5 -6 -6 -6 -6 -6 -6 -6 -6 -6 -6 -6 -6 -6 -6 -6 -6 -6 -6 -6 -7 -7 -7 -7 -7 -7 -7 -7 -7 -7 -7 -7 -7 -7 -8 -8 -8 -8
-5 -5 -5 -6 -6 -6 -6 -6 -6 -6 -6 -6 -6 -6 -6 -6 -6 -6 -6 -6 -6 -6 -6 -7 -7 -7 -7 -7 -7 -7 -7 -7 -7 -7 -7 -7 -8 -8 -8 -8 -8 -8 -8 -8
-6 -6 -6 -6 -6 -6 -6 -6 -6 -6 -6 -6 -7 -7 -7 -7 -7 -7 -7 -7 -7 -7 -7 -7 -7 -7 -7 -7 -7 -7 -7 -8 -8 -8 -8 -8 -8 -8 -8 -8 -8 -8 -8 -8
-6 -6 -6 -6 -6 -6 -6 -6 -7 -7 -7 -7 -7 -7 -7 -7 -7 -7 -7 -7 -7 -7 -7 -7 -7 -7 -7 -7 -7 -8 -8 -8 -8 -8 -8 -8 -8 -8 -8 -8 -8 -8 -8 -8
-6 -6 -6 -6 -6 -7 -7 -7 -7 -7 -7 -7 -7 -7 -7 -7 -7 -7 -7 -7 -7 -7 -7 -7 -7 -7 -7 -8 -8 -8 -8 -8 -8 -8 -8 -8 -8 -8 -8 -8 -8 -8 -8 -8
Wind_Speed
7 6 4 7 8 9 12 12 11 12 13 14 11 9 8 7 6 6 6 6 5 5 4 3 3 2 2 1 1 1 1 1 1 1 1 1 1 1 1 1 1 2 2 2
5 6 7 10 13 14 15 14 16 16 17 14 11 9 8 8 7 7 7 7 6 5 5 4 4 3 2 2 2 2 2 1 1 1 1 1 1 1 1 1 1 2 2 2
5 3 5 10 12 14 11 11 12 14 13 9 8 8 8 7 6 7 7 7 6 5 5 5 4 3 3 2 2 2 2 1 1 1 1 1 1 1 2 2 2 2 2 3
3 3 9 5 2 8 11 12 13 12 10 8 8 9 8 5 6 7 6 6 6 5 4 4 3 3 2 2 2 2 2 2 2 2 2 2 2 2 2 2 2 2 3 3
4 6 9 8 5 5 7 9 9 11 10 9 6 6 5 3 4 5 5 5 4 4 4 4 3 3 2 2 2 2 2 2 2 2 2 2 2 2 2 2 2 3 3 3
5 6 8 4 1 2 3 6 3 5 7 6 3 5 4 2 4 4 4 3 3 3 3 3 3 2 3 3 3 3 3 3 3 3 3 3 3 3 3 2 3 3 3 3
9 8 8 4 2 4 5 4 0 3 4 4 5 6 5 4 4 4 3 3 3 3 3 3 2 3 3 3 4 3 3 3 3 3 3 3 3 3 2 2 2 3 3 3
7 8 8 3 5 6 3 2 3 4 4 5 5 5 5 5 4 4 3 3 3 2 3 2 3 3 4 4 3 2 2 3 3 3 3 3 3 3 3 2 3 3 3 3
8 7 2 4 5 4 4 5 5 5 5 4 5 6 6 5 5 4 4 4 3 3 3 3 3 3 4 4 2 2 2 3 3 3 3 3 3 3 2 2 2 2 3 3
7 9 8 8 9 8 7 7 7 6 5 5 6 6 6 5 5 5 4 4 3 3 3 3 3 3 4 3 2 3 3 3 3 3 3 3 3 3 3 3 3 3 3 3
9 9 8 9 10 10 9 7 7 7 6 6 6 6 6 6 5 5 4 4 3 3 4 4 4 3 3 2 2 3 3 3 3 3 3 3 3 3 3 3 3 4 3 3
9 8 7 7 6 7 8 8 8 7 6 6 6 7 7 6 5 5 5 4 4 4 4 4 4 4 3 3 3 3 3 3 3 3 3 3 3 2 3 4 4 5 5 5
10 8 8 9 8 7 7 8 7 7 7 7 6 6 6 6 5 5 5 5 5 5 5 4 4 4 4 3 3 4 4 3 3 3 3 3 3 3 3 2 3 4 5 5
11 9 9 10 9 8 7 7 6 6 7 7 6 6 5 6 6 6 6 6 6 5 5 4 4 4 4 3 3 4 4 4 3 3 3 3 3 3 3 3 3 3 3 4
9 9 10 9 8 7 6 5 5 6 6 6 6 6 6 6 6 6 6 5 4 5 5 4 4 4 3 3 4 4 4 3 3 3 3 3 3 3 3 3 3 3 2 3
7 7 8 8 8 7 6 6 7 8 7 6 6 6 6 6 6 6 5 5 5 5 5 5 5 5 3 3 4 3 4 4 3 3 3 3 3 3 3 3 2 2 2 2
6 7 7 8 8 8 7 7 7 8 7 7 7 6 5 5 5 5 5 5 5 5 5 5 5 4 4 4 4 3 3 4 4 3 3 3 3 3 3 3 3 3 3 3
7 7 7 7 7 7 7 6 6 7 7 6 5 5 5 5 6 5 5 4 4 4 5 5 4 4 4 4 4 3 3 3 3 3 3 3 3 3 3 3 3 3 3 3
5 5 5 5 5 5 6 6 6 6 5 5 5 5 5 6 5 5 4 4 4 5 5 4 4 4 4 4 4 3 3 3 3 3 3 4 3 3 3 3 3 3 3 2
4 4 4 4 4 4 5 5 5 5 4 4 4 5 5 5 5 4 4 5 5 4 4 4 4 4 4 4 4 3 4 4 4 4 3 3 3 3 3 3 3 3 3 3
4 4 4 4 4 4 5 5 4 5 5 4 5 5 5 5 5 4 4 5 5 4 4 5 4 3 3 4 4 3 4 4 4 4 4 4 4 3 3 3 3 3 3 3
4 4 4 4 4 5 4 4 4 4 4 4 4 4 4 4 4 4 5 5 4 4 3 3 3 4 5 4 3 3 3 4 4 4 4 4 4 4 3 3 3 3 3 3
5 5 5 5 5 4 4 3 3 4 4 5 5 5 5 5 4 4 4 4 3 4 4 4 5 6 6 4 3 4 4 4 4 4 4 4 4 4 4 4 3 3 3 3
5 5 4 4 3 3 4 4 3 3 4 4 4 4 4 3 3 4 4 4 4 4 4 5 6 6 6 3 3 4 4 4 4 4 4 4 3 3 3 3 3 3 3 4
5 4 3 3 3 4 4 3 2 2 2 3 3 3 3 3 3 3 3 3 4 4 4 4 5 6 4 3 3 4 4 4 4 4 4 3 3 3 3 3 3 3 3 3
4 4 4 4 4 3 3 2 3 3 2 3 3 3 3 3 3 3 3 3 3 4 3 3 4 4 3 3 4 4 4 4 4 4 4 4 4 4 3 3 4 3 3 3
3 3 2 2 3 3 3 3 3 3 3 3 4 3 3 3 3 3 3 3 3 3 3 3 3 3 3 3 3 3 3 3 3 4 3 3 3 3 3 4 3 3 3 3
Wind_Direction
260 269 253 249 243 226 224 233 244 257 260 271 283 289 290 286 281 275 269 264 265 268 271 271 266 255 249 245 230 208 198 212 234 240 241 245 252 258 267 275 281 287 294 299
256 251 253 261 251 239 238 241 248 261 269 275 288 290 287 284 279 274 269 266 265 262 260 260 256 248 244 236 223 206 202 218 234 236 241 244 253 258 264 269 276 286 290 293
254 265 270 261 243 228 229 229 233 246 258 277 286 286 288 287 279 274 273 273 269 263 257 252 246 241 235 230 221 210 211 221 231 239 246 256 266 262 262 261 269 278 286 292
259 247 242 254 224 221 232 244 237 248 261 269 280 295 293 277 273 278 278 275 270 266 265 255 246 234 222 223 221 214 219 229 233 232 241 255 261 263 270 269 266 270 281 290
223 245 265 271 242 211 223 256 238 240 257 275 289 291 274 262 276 275 276 276 271 264 258 252 242 227 209 211 218 226 234 241 242 237 238 247 257 264 267 266 269 276 283 287
221 239 247 259 172 188 211 258 240 225 247 270 269 273 286 318 310 293 285 280 280 273 255 240 233 222 212 214 219 232 242 247 245 239 236 241 248 256 261 259 267 278 282 283
229 243 259 273 193 172 219 261 241 240 252 256 251 272 299 306 306 300 297 288 280 265 246 241 225 209 223 224 231 241 246 248 245 241 239 240 241 245 246 252 265 273 278 283
212 229 248 172 165 205 256 330 274 271 265 257 264 282 287 291 298 302 302 296 289 269 258 253 227 215 233 239 244 238 233 239 246 247 244 239 237 239 240 244 256 269 277 289
214 231 282 193 226 260 286 274 276 276 271 265 270 279 283 292 295 294 289 284 281 266 261 261 244 229 237 249 237 228 233 238 242 246 244 239 238 236 237 240 248 261 271 283
248 256 257 254 256 264 266 265 271 272 269 266 265 271 277 284 290 292 288 283 278 268 260 265 260 248 244 249 227 218 232 243 244 243 244 242 240 235 233 236 244 253 262 272
249 260 271 259 251 257 261 261 266 269 262 257 256 263 267 274 282 285 284 281 272 263 257 259 259 255 257 252 225 226 235 240 242 240 240 240 234 233 237 240 247 255 259 264
247 249 246 262 265 262 258 259 260 263 267 261 251 254 260 266 272 273 273 273 271 263 258 259 256 257 260 252 233 227 235 241 241 242 243 239 236 246 255 261 269 269 269 271
258 269 266 274 279 271 265 267 266 260 259 263 260 252 256 264 269 268 267 265 262 258 256 253 249 254 255 244 237 233 238 243 242 241 240 239 237 240 256 267 267 272 275 276
259 263 268 269 271 273 271 271 270 268 264 259 259 256 252 259 263 262 262 262 260 258 253 246 243 252 256 244 242 242 241 241 239 239 239 238 239 242 248 258 269 281 286 290
261 259 262 273 275 272 269 264 265 266 266 265 259 252 248 250 256 263 266 262 256 253 251 246 247 257 258 243 241 245 241 239 239 241 239 238 238 238 242 249 261 276 289 292
277 271 264 262 261 266 266 261 259 263 265 267 262 256 252 252 259 267 266 255 245 246 246 243 247 255 249 239 240 244 241 236 235 239 237 233 231 232 237 242 252 267 276 287
267 266 263 261 261 264 264 262 260 262 263 261 261 260 255 253 257 260 263 258 251 252 250 244 249 252 241 235 236 240 242 234 229 237 238 235 231 232 235 239 246 257 269 282
258 260 259 261 263 265 267 264 261 260 259 262 264 255 245 242 248 256 263 265 260 262 259 256 254 249 245 243 239 236 235 231 227 231 232 232 236 237 238 240 246 257 272 276
264 262 264 264 262 258 259 263 263 261 260 256 251 250 251 252 254 257 258 251 248 257 266 260 249 246 247 241 237 231 226 228 229 233 231 232 234 234 236 239 245 253 261 265
274 268 265 269 271 265 263 266 264 261 260 252 248 252 256 257 254 254 252 251 251 259 260 253 248 248 245 236 229 229 226 230 231 229 228 229 231 234 236 239 242 249 253 257
280 275 272 275 279 277 269 265 260 261 263 252 245 248 254 259 254 249 251 261 269 262 253 243 242 242 238 232 228 228 226 230 230 226 226 229 233 235 236 238 241 246 251 257
283 279 280 281 281 284 283 273 262 256 257 257 255 250 250 255 257 259 257 260 268 259 255 246 245 243 237 232 227 226 226 227 230 226 223 225 229 232 235 238 241 245 249 255
287 282 278 273 271 277 284 275 261 254 252 251 248 245 246 251 254 257 268 268 262 256 256 250 244 244 244 235 226 222 222 223 226 226 223 224 228 230 232 236 240 242 245 251
285 282 277 276 266 262 270 275 269 263 258 260 254 249 249 256 265 263 268 270 266 261 261 252 249 249 247 233 225 223 221 222 224 227 226 225 226 227 229 233 240 246 250 254
280 277 271 263 256 260 266 274 276 273 271 273 274 268 259 256 261 271 272 264 262 265 267 258 254 254 245 233 227 225 223 225 226 226 224 222 223 226 228 232 237 244 250 253
277 273 269 263 263 264 260 256 261 264 264 272 282 280 275 271 267 268 268 266 263 264 265 258 251 248 240 236 232 228 225 227 231 231 225 223 225 228 231 234 240 244 250 256
286 281 279 281 280 270 263 259 259 262 260 261 276 282 278 276 271 269 269 268 264 261 260 254 248 241 237 233 229 226 224 225 225 224 221 221 223 226 228 233 240 245 249 253
Height
1492 1491 1492 1490 1490 1491 1490 1482 1478 1469 1468 1463 1464 1466 1466 1466 1465 1465 1464 1463 1462 1462 1461 1460 1460 1459 1459 1459 1459 1459 1459 1459 1459 1458 1458 1458 1457 1457 1456 1455 1455 1454 1453 1452
1492 1490 1491 1489 1484 1484 1483 1481 1477 1473 1468 1463 1464 1465 1464 1463 1462 1461 1460 1460 1459 1458 1458 1457 1457 1457 1456 1456 1456 1456 1456 1456 1456 1455 1455 1455 1454 1454 1453 1453 1452 1451 1450 1449
1484 1489 1489 1479 1472 1474 1474 1471 1471 1467 1462 1462 1463 1462 1462 1461 1460 1459 1458 1457 1456 1455 1455 1454 1454 1454 1454 1454 1454 1454 1454 1453 1453 1452 1452 1452 1451 1451 1451 1450 1449 1448 1448 1447
1486 1488 1482 1463 1466 1466 1466 1464 1465 1463 1461 1461 1461 1461 1459 1458 1457 1456 1455 1454 1453 1452 1452 1452 1451 1451 1451 1451 1451 1451 1451 1450 1450 1450 1449 1449 1449 1448 1448 1447 1446 1446 1445 1444
1485 1479 1467 1462 1464 1465 1465 1460 1459 1460 1459 1459 1459 1458 1456 1455 1454 1453 1452 1451 1450 1450 1449 1449 1449 1449 1449 1448 1448 1448 1448 1448 1447 1447 1446 1446 1446 1445 1445 1444 1444 1443 1442 1441
1483 1475 1465 1455 1462 1463 1464 1457 1456 1457 1457 1457 1458 1454 1452 1452 1451 1450 1449 1448 1447 1447 1447 1446 1446 1446 1446 1446 1445 1445 1445 1445 1445 1444 1444 1443 1443 1442 1442 1441 1441 1440 1439 1438
1479 1472 1459 1459 1461 1463 1460 1452 1454 1454 1454 1455 1455 1453 1451 1449 1448 1447 1447 1446 1445 1444 1444 1444 1444 1443 1443 1443 1443 1443 1442 1442 1441 1441 1441 1440 1440 1440 1439 1438 1438 1437 1436 1435
1473 1470 1460 1458 1459 1458 1452 1452 1452 1452 1451 1452 1451 1450 1448 1447 1446 1445 1444 1443 1443 1442 1441 1441 1441 1441 1440 1440 1440 1440 1439 1439 1438 1438 1438 1438 1437 1437 1436 1435 1435 1434 1433 1432
1462 1457 1454 1455 1454 1453 1452 1451 1450 1450 1449 1449 1448 1447 1446 1444 1443 1442 1441 1441 1440 1439 1438 1438 1438 1438 1437 1437 1437 1437 1436 1436 1435 1435 1435 1434 1434 1433 1433 1432 1431 1431 1430 1429
1459 1453 1452 1451 1450 1449 1449 1448 1447 1447 1446 1445 1444 1443 1443 1442 1441 1440 1439 1438 1437 1436 1435 1435 1435 1435 1435 1434 1434 1433 1433 1433 1432 1432 1431 1431 1431 1430 1429 1429 1428 1428 1427 1426
1453 1449 1449 1446 1446 1445 1445 1444 1444 1443 1442 1442 1441 1440 1440 1439 1438 1437 1436 1435 1434 1433 1433 1432 1432 1432 1432 1431 1431 1430 1430 1430 1429 1429 1428 1427 1427 1427 1426 1426 1426 1425 1424 1423
1443 1443 1443 1441 1441 1442 1441 1440 1440 1439 1438 1438 1438 1437 1436 1435 1434 1434 1433 1432 1431 1430 1430 1429 1429 1429 1428 1428 1428 1427 1427 1426 1426 1425 1425 1424 1424 1423 1423 1423 1422 1422 1421 1420
1440 1439 1439 1437 1437 1437 1437 1436 1436 1435 1434 1434 1433 1433 1432 1431 1431 1430 1429 1429 1428 1427 1427 1426 1426 1425 1425 1425 1424 1424 1424 1423 1423 1422 1421 1421 1420 1420 1419 1419 1419 1418 1417 1416
1436 1436 1435 1434 1433 1433 1432 1432 1431 1431 1430 1430 1429 1429 1428 1427 1427 1426 1425 1425 1424 1424 1423 1423 1422 1422 1422 1421 1421 1420 1420 1420 1419 1419 1418 1418 1417 1417 1416 1415 1415 1414 1414 1413
1431 1431 1430 1429 1429 1428 1428 1428 1427 1426 1426 1425 1425 1424 1424 1423 1422 1422 1422 1421 1420 1420 1419 1419 1418 1418 1418 1418 1417 1417 1417 1416 1416 1415 1415 1414 1414 1413 1413 1412 1411 1411 1410 1409
1426 1426 1425 1425 1424 1424 1424 1423 1422 1422 1421 1421 1420 1420 1419 1419 1418 1418 1418 1417 1416 1415 1415 1415 1414 1415 1414 1414 1414 1413 1413 1413 1413 1412 1411 1411 1410 1409 1409 1409 1408 1407 1407 1406
1422 1421 1420 1420 1419 1419 1419 1419 1418 1417 1417 1417 1416 1415 1415 1415 1414 1413 1413 1413 1412 1412 1411 1411 1411 1411 1410 1410 1410 1410 1410 1409 1409 1408 1408 1407 1407 1406 1406 1405 1405 1404 1404 1403
1418 1417 1417 1416 1415 1415 1414 1414 1414 1413 1413 1412 1412 1411 1411 1410 1410 1409 1409 1409 1408 1408 1407 1407 1407 1407 1407 1407 1406 1406 1406 1406 1405 1405 1404 1404 1403 1403 1403 1403 1402 1402 1401 1401
1413 1413 1412 1412 1412 1411 1410 1410 1410 1409 1409 1409 1408 1407 1407 1406 1406 1406 1405 1405 1404 1403 1403 1403 1403 1403 1403 1403 1403 1403 1402 1402 1402 1401 1401 1401 1401 1400 1400 1400 1399 1399 1398 1398
1409 1409 1408 1408 1408 1407 1407 1406 1406 1405 1405 1405 1404 1404 1403 1403 1402 1402 1401 1400 1400 1400 1400 1399 1399 1399 1399 1399 1399 1399 1398 1398 1398 1398 1398 1397 1397 1397 1397 1397 1396 1396 1395 1395
1406 1406 1405 1405 1404 1404 1403 1403 1402 1402 1401 1401 1401 1400 1399 1399 1399 1398 1397 1396 1396 1396 1396 1395 1395 1395 1395 1395 1395 1395 1395 1395 1395 1394 1394 1394 1394 1394 1394 1394 1393 1393 1392 1392
1404 1403 1402 1402 1401 1400 1400 1399 1399 1398 1397 1397 1397 1396 1395 1395 1395 1394 1394 1393 1393 1393 1392 1392 1392 1392 1392 1391 1391 1391 1391 1391 1391 1391 1391 1391 1391 1391 1391 1390 1390 1390 1389 1389
1401 1400 1399 1398 1398 1397 1396 1396 1395 1394 1394 1393 1393 1392 1392 1392 1391 1391 1390 1390 1389 1389 1389 1388 1388 1388 1388 1388 1388 1387 1387 1387 1387 1388 1388 1388 1388 1388 1387 1387 1387 1386 1386 1386
1398 1397 1396 1395 1394 1394 1393 1392 1391 1391 1391 1390 1390 1389 1389 1388 1388 1387 1387 1386 1386 1386 1385 1385 1385 1385 1384 1384 1384 1384 1384 1384 1384 1384 1384 1384 1384 1384 1384 1384 1384 1384 1383 1383
1395 1394 1393 1392 1391 1390 1390 1389 1388 1388 1387 1387 1387 1386 1386 1385 1385 1384 1383 1383 1382 1382 1381 1381 1381 1381 1381 1380 1380 1380 1380 1380 1381 1381 1381 1381 1381 1381 1381 1381 1381 1381 1380 1380
1391 1390 1390 1389 1388 1387 1387 1386 1385 1385 1384 1384 1383 1383 1383 1382 1382 1381 1380 1379 1379 1378 1378 1377 1377 1377 1377 1377 1377 1377 1377 1377 1377 1377 1378 1378 1378 1378 1378 1378 1378 1378 1378 1377
1388 1387 1387 1386 1385 1385 1384 1383 1383 1382 1382 1381 1380 1380 1379 1379 1378 1377 1377 1376 1375 1375 1374 1374 1374 1373 1373 1373 1373 1373 1373 1374 1374 1374 1374 1375 1375 1375 1375 1375 1375 1375 1375 1374